Time,TemperatureF,DewpointF,PressureIn,WindDirection,WindDirectionDegrees,WindSpeedMPH,WindSpeedGustMPH,Humidity,HourlyPrecipIn,Conditions,Clouds,dailyrainin,SoftwareType,DateUTC
2013-06-14 00:02:00,59.4,45.3,29.90,West,273,5.0,13.0,34,0.00,,,0.00,meteohub,2013-06-14 07:02:00,
2013-06-14 00:07:00,59.5,45.3,29.90,West,277,7.0,14.0,34,0.00,,,0.00,meteohub,2013-06-14 07:07:00,
2013-06-14 00:12:00,59.4,45.3,29.90,North,349,6.0,16.0,34,0.00,,,0.00,meteohub,2013-06-14 07:12:00,
2013-06-14 00:17:00,59.7,45.1,29.90,West,271,4.0,16.0,34,0.00,,,0.00,meteohub,2013-06-14 07:17:00,
2013-06-14 00:22:00,59.7,45.1,29.89,SW,216,6.0,16.0,34,0.00,,,0.00,meteohub,2013-06-14 07:22:00,
2013-06-14 00:27:00,60.3,45.1,29.89,WSW,252,6.0,14.0,34,0.00,,,0.00,meteohub,2013-06-14 07:27:00,
2013-06-14 00:33:00,60.4,45.1,29.89,WSW,240,10.0,14.0,34,0.00,,,0.00,meteohub,2013-06-14 07:33:00,
2013-06-14 00:38:00,60.6,45.1,29.89,NW,326,9.0,14.0,34,0.00,,,0.00,meteohub,2013-06-14 07:38:00,
2013-06-14 00:44:00,60.6,45.0,29.89,West,266,9.0,14.0,34,0.00,,,0.00,meteohub,2013-06-14 07:44:00,
2013-06-14 00:49:00,60.6,45.0,29.89,NNE,29,4.0,16.0,34,0.00,,,0.00,meteohub,2013-06-14 07:49:00,
2013-06-14 00:55:00,60.6,44.8,29.89,SE,139,6.0,16.0,34,0.00,,,0.00,meteohub,2013-06-14 07:55:00,
2013-06-14 01:00:00,60.8,44.8,29.89,West,273,6.0,15.0,34,0.00,,,0.00,meteohub,2013-06-14 08:00:00,
2013-06-14 01:05:00,61.0,44.6,29.88,ENE,75,6.0,13.0,34,0.00,,,0.00,meteohub,2013-06-14 08:05:00,
2013-06-14 01:11:00,61.0,44.6,29.88,SW,231,10.0,13.0,34,0.00,,,0.00,meteohub,2013-06-14 08:11:00,
2013-06-14 01:16:00,61.2,44.6,29.88,NE,39,5.0,17.0,34,0.00,,,0.00,meteohub,2013-06-14 08:16:00,
2013-06-14 01:22:00,61.3,44.4,29.88,East,97,6.0,17.0,34,0.00,,,0.00,meteohub,2013-06-14 08:22:00,
2013-06-14 01:27:00,61.5,44.4,29.88,WSW,256,9.0,17.0,34,0.00,,,0.00,meteohub,2013-06-14 08:27:00,
2013-06-14 01:32:00,61.7,44.4,29.88,WNW,301,5.0,16.0,34,0.00,,,0.00,meteohub,2013-06-14 08:32:00,
2013-06-14 01:37:00,61.9,44.2,29.89,NNW,330,6.0,16.0,34,0.00,,,0.00,meteohub,2013-06-14 08:37:00,
2013-06-14 01:42:00,62.1,44.2,29.88,North,356,11.0,16.0,34,0.00,,,0.00,meteohub,2013-06-14 08:42:00,
2013-06-14 01:47:00,62.2,44.2,29.88,SSW,212,11.0,16.0,34,0.00,,,0.00,meteohub,2013-06-14 08:47:00,
2013-06-14 01:53:00,62.6,44.1,29.88,NW,321,8.0,17.0,34,0.00,,,0.00,meteohub,2013-06-14 08:53:00,
2013-06-14 01:58:00,62.8,43.9,29.88,NW,325,9.0,17.0,34,0.00,,,0.00,meteohub,2013-06-14 08:58:00,
2013-06-14 02:04:00,62.8,43.9,29.89,WSW,245,14.0,17.0,34,0.00,,,0.00,meteohub,2013-06-14 09:04:00,
2013-06-14 02:09:00,62.8,43.9,29.88,NE,34,8.0,19.0,34,0.00,,,0.00,meteohub,2013-06-14 09:09:00,
2013-06-14 02:15:00,63.0,43.9,29.89,WSW,252,7.0,19.0,34,0.00,,,0.00,meteohub,2013-06-14 09:15:00,
2013-06-14 02:20:00,63.1,43.9,29.89,WSW,239,16.0,20.0,34,0.00,,,0.00,meteohub,2013-06-14 09:20:00,
2013-06-14 02:26:00,63.1,43.7,29.89,ESE,103,13.0,20.0,34,0.00,,,0.00,meteohub,2013-06-14 09:26:00,
2013-06-14 02:31:00,63.1,43.7,29.89,West,266,10.0,20.0,34,0.00,,,0.00,meteohub,2013-06-14 09:31:00,
2013-06-14 02:36:00,63.1,43.5,29.89,NE,42,17.0,18.0,34,0.00,,,0.00,meteohub,2013-06-14 09:36:00,
2013-06-14 02:41:00,63.3,43.5,29.89,WSW,253,12.0,18.0,34,0.00,,,0.00,meteohub,2013-06-14 09:41:00,
2013-06-14 02:46:00,63.7,43.5,29.89,SSW,193,8.0,18.0,34,0.00,,,0.00,meteohub,2013-06-14 09:46:00,
2013-06-14 02:52:00,63.9,43.5,29.89,ENE,70,12.0,19.0,34,0.00,,,0.00,meteohub,2013-06-14 09:52:00,
2013-06-14 02:57:00,63.9,43.3,29.89,NE,47,13.0,19.0,34,0.00,,,0.00,meteohub,2013-06-14 09:57:00,
2013-06-14 03:02:00,64.0,43.2,29.88,WNW,291,9.0,19.0,34,0.00,,,0.00,meteohub,2013-06-14 10:02:00,
2013-06-14 03:07:00,64.2,43.2,29.89,ENE,63,9.0,20.0,34,0.00,,,0.00,meteohub,2013-06-14 10:07:00,
2013-06-14 03:12:00,64.2,43.0,29.89,SW,231,14.0,20.0,34,0.00,,,0.00,meteohub,2013-06-14 10:12:00,
2013-06-14 03:17:00,64.2,43.0,29.89,WSW,242,8.0,20.0,34,0.00,,,0.00,meteohub,2013-06-14 10:17:00,
2013-06-14 03:23:00,64.2,42.3,29.89,North,5,14.0,20.0,33,0.00,,,0.00,meteohub,2013-06-14 10:23:00,
2013-06-14 03:28:00,64.4,42.1,29.88,WSW,243,17.0,20.0,33,0.00,,,0.00,meteohub,2013-06-14 10:28:00,
2013-06-14 03:34:00,64.6,42.1,29.88,West,274,12.0,20.0,33,0.00,,,0.00,meteohub,2013-06-14 10:34:00,
2013-06-14 03:39:00,64.2,42.1,29.88,NNE,30,5.0,23.0,33,0.00,,,0.00,meteohub,2013-06-14 10:39:00,
2013-06-14 03:44:00,64.4,41.9,29.88,SW,214,14.0,23.0,33,0.00,,,0.00,meteohub,2013-06-14 10:44:00,
2013-06-14 03:50:00,64.6,41.9,29.88,NW,314,11.0,23.0,33,0.00,,,0.00,meteohub,2013-06-14 10:50:00,
2013-06-14 03:55:00,64.4,41.9,29.89,ENE,61,13.0,22.0,33,0.00,,,0.00,meteohub,2013-06-14 10:55:00,
2013-06-14 04:00:00,64.4,41.7,29.88,SW,222,15.0,22.0,33,0.00,,,0.00,meteohub,2013-06-14 11:00:00,
2013-06-14 04:06:00,64.6,41.7,29.89,WSW,248,8.0,21.0,33,0.00,,,0.00,meteohub,2013-06-14 11:06:00,
2013-06-14 04:11:00,64.6,41.5,29.89,West,271,14.0,21.0,33,0.00,,,0.00,meteohub,2013-06-14 11:11:00,
2013-06-14 04:17:00,64.8,41.5,29.88,NNE,29,12.0,21.0,33,0.00,,,0.00,meteohub,2013-06-14 11:17:00,
2013-06-14 04:22:00,64.6,41.4,29.88,West,262,15.0,19.0,33,0.00,,,0.00,meteohub,2013-06-14 11:22:00,
2013-06-14 04:27:00,64.6,41.4,29.89,SW,233,11.0,19.0,33,0.00,,,0.00,meteohub,2013-06-14 11:27:00,
2013-06-14 04:32:00,64.6,41.4,29.88,NNE,28,6.0,19.0,33,0.00,,,0.00,meteohub,2013-06-14 11:32:00,
2013-06-14 04:37:00,64.2,41.4,29.88,East,88,12.0,21.0,33,0.00,,,0.00,meteohub,2013-06-14 11:37:00,
2013-06-14 04:42:00,64.2,41.4,29.88,WNW,285,8.0,21.0,33,0.00,,,0.00,meteohub,2013-06-14 11:42:00,
2013-06-14 04:47:00,64.0,40.5,29.88,WSW,250,18.0,19.0,32,0.00,,,0.00,meteohub,2013-06-14 11:47:00,
2013-06-14 04:52:00,64.2,40.5,29.89,North,6,5.0,19.0,32,0.00,,,0.00,meteohub,2013-06-14 11:52:00,
2013-06-14 04:57:00,64.2,40.3,29.89,WSW,248,11.0,18.0,32,0.00,,,0.00,meteohub,2013-06-14 11:57:00,
2013-06-14 05:02:00,64.2,40.3,29.89,WNW,298,13.0,18.0,32,0.00,,,0.00,meteohub,2013-06-14 12:02:00,
2013-06-14 05:07:00,64.4,40.3,29.89,NNW,346,6.0,16.0,32,0.00,,,0.00,meteohub,2013-06-14 12:07:00,
2013-06-14 05:13:00,64.4,40.3,29.89,WSW,248,4.0,16.0,32,0.00,,,0.00,meteohub,2013-06-14 12:13:00,
2013-06-14 05:18:00,64.4,40.1,29.89,NNW,340,8.0,16.0,32,0.00,,,0.00,meteohub,2013-06-14 12:18:00,
2013-06-14 05:23:00,64.6,40.1,29.89,NNW,339,11.0,16.0,32,0.00,,,0.00,meteohub,2013-06-14 12:23:00,
2013-06-14 05:29:00,64.8,40.1,29.89,West,271,11.0,16.0,32,0.00,,,0.00,meteohub,2013-06-14 12:29:00,
2013-06-14 05:34:00,64.8,40.1,29.90,West,281,10.0,17.0,32,0.00,,,0.00,meteohub,2013-06-14 12:34:00,
2013-06-14 05:39:00,64.8,40.1,29.90,SW,221,6.0,17.0,32,0.00,,,0.00,meteohub,2013-06-14 12:39:00,
2013-06-14 05:45:00,64.9,39.9,29.90,WSW,246,9.0,15.0,32,0.00,,,0.00,meteohub,2013-06-14 12:45:00,
2013-06-14 05:50:00,64.9,39.9,29.90,SW,236,16.0,16.0,32,0.00,,,0.00,meteohub,2013-06-14 12:50:00,
2013-06-14 05:56:00,65.3,39.9,29.90,West,276,11.0,17.0,32,0.00,,,0.00,meteohub,2013-06-14 12:56:00,
2013-06-14 06:01:00,65.5,39.9,29.90,West,262,9.0,17.0,32,0.00,,,0.00,meteohub,2013-06-14 13:01:00,
2013-06-14 06:07:00,65.5,39.7,29.90,WSW,238,13.0,17.0,32,0.00,,,0.00,meteohub,2013-06-14 13:07:00,
2013-06-14 06:12:00,65.7,39.7,29.90,WNW,288,10.0,16.0,32,0.00,,,0.00,meteohub,2013-06-14 13:12:00,
2013-06-14 06:17:00,65.7,39.7,29.90,NW,319,9.0,16.0,32,0.00,,,0.00,meteohub,2013-06-14 13:17:00,
2013-06-14 06:22:00,65.8,39.7,29.90,NW,326,11.0,17.0,32,0.00,,,0.00,meteohub,2013-06-14 13:22:00,
2013-06-14 06:27:00,66.0,39.6,29.90,WSW,249,5.0,17.0,32,0.00,,,0.00,meteohub,2013-06-14 13:27:00,
2013-06-14 06:33:00,66.0,39.6,29.90,NW,309,6.0,17.0,32,0.00,,,0.00,meteohub,2013-06-14 13:33:00,
2013-06-14 06:38:00,66.2,39.6,29.90,WNW,287,8.0,15.0,32,0.00,,,0.00,meteohub,2013-06-14 13:38:00,
2013-06-14 06:44:00,66.4,39.6,29.90,WSW,246,10.0,15.0,32,0.00,,,0.00,meteohub,2013-06-14 13:44:00,
2013-06-14 06:49:00,66.6,39.4,29.90,West,259,10.0,18.0,32,0.00,,,0.00,meteohub,2013-06-14 13:49:00,
2013-06-14 06:54:00,66.7,39.4,29.90,WSW,240,8.0,18.0,32,0.00,,,0.00,meteohub,2013-06-14 13:54:00,
2013-06-14 06:59:00,66.7,39.4,29.91,NNW,334,6.0,18.0,32,0.00,,,0.00,meteohub,2013-06-14 13:59:00,
2013-06-14 07:05:00,66.7,38.5,29.91,WSW,250,9.0,13.0,31,0.00,,,0.00,meteohub,2013-06-14 14:05:00,
2013-06-14 07:10:00,66.7,38.5,29.91,North,5,8.0,14.0,31,0.00,,,0.00,meteohub,2013-06-14 14:10:00,
2013-06-14 07:16:00,67.1,38.5,29.91,WSW,249,7.0,14.0,31,0.00,,,0.00,meteohub,2013-06-14 14:16:00,
2013-06-14 07:21:00,67.5,38.5,29.91,West,277,7.0,13.0,31,0.00,,,0.00,meteohub,2013-06-14 14:21:00,
2013-06-14 07:27:00,67.8,38.5,29.91,WSW,240,10.0,13.0,31,0.00,,,0.00,meteohub,2013-06-14 14:27:00,
2013-06-14 07:32:00,68.2,38.5,29.91,SW,231,4.0,12.0,31,0.00,,,0.00,meteohub,2013-06-14 14:32:00,
2013-06-14 07:37:00,68.5,38.5,29.91,NNE,15,6.0,10.0,31,0.00,,,0.00,meteohub,2013-06-14 14:37:00,
2013-06-14 07:42:00,69.1,38.3,29.91,ENE,61,3.0,10.0,31,0.00,,,0.00,meteohub,2013-06-14 14:42:00,
2013-06-14 07:47:00,69.4,38.3,29.91,NW,321,4.0,8.0,31,0.00,,,0.00,meteohub,2013-06-14 14:47:00,
2013-06-14 07:52:00,69.6,38.3,29.91,NNE,15,2.0,8.0,31,0.00,,,0.00,meteohub,2013-06-14 14:52:00,
2013-06-14 07:57:00,70.0,38.3,29.91,WSW,250,5.0,8.0,31,0.00,,,0.00,meteohub,2013-06-14 14:57:00,
2013-06-14 08:02:00,70.5,38.3,29.92,ENE,60,2.0,8.0,31,0.00,,,0.00,meteohub,2013-06-14 15:02:00,
2013-06-14 08:08:00,70.9,39.0,29.92,NNE,15,4.0,7.0,32,0.00,,,0.00,meteohub,2013-06-14 15:08:00,
2013-06-14 08:13:00,71.1,39.0,29.92,WSW,249,5.0,8.0,32,0.00,,,0.00,meteohub,2013-06-14 15:13:00,
2013-06-14 08:19:00,71.2,39.0,29.92,West,266,7.0,9.0,32,0.00,,,0.00,meteohub,2013-06-14 15:19:00,
2013-06-14 08:24:00,71.8,39.0,29.91,ENE,64,2.0,11.0,32,0.00,,,0.00,meteohub,2013-06-14 15:24:00,
2013-06-14 08:30:00,72.0,39.0,29.91,NE,38,8.0,11.0,32,0.00,,,0.00,meteohub,2013-06-14 15:30:00,
2013-06-14 08:35:00,72.1,39.0,29.91,WSW,246,6.0,12.0,32,0.00,,,0.00,meteohub,2013-06-14 15:35:00,
2013-06-14 08:41:00,72.5,39.0,29.91,WSW,248,8.0,12.0,32,0.00,,,0.00,meteohub,2013-06-14 15:41:00,
2013-06-14 08:46:00,72.7,39.0,29.92,WSW,245,5.0,12.0,32,0.00,,,0.00,meteohub,2013-06-14 15:46:00,
2013-06-14 08:51:00,72.9,39.0,29.92,WSW,249,12.0,13.0,32,0.00,,,0.00,meteohub,2013-06-14 15:51:00,
2013-06-14 08:57:00,72.9,39.0,29.91,West,274,6.0,13.0,32,0.00,,,0.00,meteohub,2013-06-14 15:57:00,
2013-06-14 09:02:00,73.2,39.0,29.91,East,93,3.0,13.0,32,0.00,,,0.00,meteohub,2013-06-14 16:02:00,
2013-06-14 09:07:00,73.9,39.0,29.91,SW,235,5.0,13.0,32,0.00,,,0.00,meteohub,2013-06-14 16:07:00,
2013-06-14 09:12:00,73.8,39.0,29.91,North,4,3.0,12.0,32,0.00,,,0.00,meteohub,2013-06-14 16:12:00,
2013-06-14 09:17:00,73.8,39.0,29.91,NNE,16,4.0,13.0,32,0.00,,,0.00,meteohub,2013-06-14 16:17:00,
2013-06-14 09:22:00,74.1,39.0,29.91,WSW,249,7.0,13.0,32,0.00,,,0.00,meteohub,2013-06-14 16:22:00,
2013-06-14 09:27:00,74.3,39.0,29.91,NE,52,3.0,12.0,32,0.00,,,0.00,meteohub,2013-06-14 16:27:00,
2013-06-14 09:32:00,74.8,39.0,29.91,NNE,20,3.0,13.0,32,0.00,,,0.00,meteohub,2013-06-14 16:32:00,
2013-06-14 09:38:00,75.4,39.0,29.91,NE,52,1.0,13.0,32,0.00,,,0.00,meteohub,2013-06-14 16:38:00,
2013-06-14 09:43:00,75.7,39.2,29.91,WNW,295,4.0,12.0,32,0.00,,,0.00,meteohub,2013-06-14 16:43:00,
2013-06-14 09:49:00,76.1,39.2,29.91,NW,311,3.0,10.0,32,0.00,,,0.00,meteohub,2013-06-14 16:49:00,
2013-06-14 09:54:00,76.1,39.2,29.91,NE,52,4.0,10.0,32,0.00,,,0.00,meteohub,2013-06-14 16:54:00,
2013-06-14 10:00:00,75.9,39.2,29.91,WSW,252,1.0,8.0,32,0.00,,,0.00,meteohub,2013-06-14 17:00:00,
2013-06-14 10:05:00,75.6,39.2,29.91,SW,231,2.0,13.0,32,0.00,,,0.00,meteohub,2013-06-14 17:05:00,
2013-06-14 10:11:00,76.6,39.2,29.91,ESE,102,8.0,12.0,32,0.00,,,0.00,meteohub,2013-06-14 17:11:00,
2013-06-14 10:16:00,76.8,39.4,29.91,West,273,11.0,12.0,32,0.00,,,0.00,meteohub,2013-06-14 17:16:00,
2013-06-14 10:22:00,76.8,39.4,29.91,NNE,23,3.0,13.0,32,0.00,,,0.00,meteohub,2013-06-14 17:22:00,
2013-06-14 10:27:00,77.4,39.4,29.91,West,263,10.0,13.0,32,0.00,,,0.00,meteohub,2013-06-14 17:27:00,
2013-06-14 10:32:00,76.6,39.6,29.91,SW,236,5.0,14.0,32,0.00,,,0.00,meteohub,2013-06-14 17:32:00,
2013-06-14 10:37:00,76.8,39.6,29.91,West,270,5.0,14.0,32,0.00,,,0.00,meteohub,2013-06-14 17:37:00,
2013-06-14 10:42:00,77.2,39.6,29.91,West,262,6.0,14.0,32,0.00,,,0.00,meteohub,2013-06-14 17:42:00,
2013-06-14 10:47:00,77.0,39.6,29.91,NNE,27,4.0,14.0,32,0.00,,,0.00,meteohub,2013-06-14 17:47:00,
2013-06-14 10:52:00,77.5,39.6,29.91,WNW,293,8.0,13.0,32,0.00,,,0.00,meteohub,2013-06-14 17:52:00,
2013-06-14 10:58:00,77.5,39.7,29.91,West,266,6.0,13.0,32,0.00,,,0.00,meteohub,2013-06-14 17:58:00,
2013-06-14 11:03:00,78.1,39.7,29.91,NE,37,2.0,13.0,32,0.00,,,0.00,meteohub,2013-06-14 18:03:00,
2013-06-14 11:09:00,79.2,39.7,29.91,SSW,193,6.0,13.0,32,0.00,,,0.00,meteohub,2013-06-14 18:09:00,
2013-06-14 11:14:00,79.3,39.7,29.91,WSW,255,12.0,13.0,32,0.00,,,0.00,meteohub,2013-06-14 18:14:00,
2013-06-14 11:20:00,78.6,39.9,29.91,North,352,9.0,15.0,32,0.00,,,0.00,meteohub,2013-06-14 18:20:00,
2013-06-14 11:25:00,78.6,39.9,29.91,NNE,20,3.0,15.0,32,0.00,,,0.00,meteohub,2013-06-14 18:25:00,
2013-06-14 11:30:00,78.6,39.9,29.91,NE,46,12.0,15.0,32,0.00,,,0.00,meteohub,2013-06-14 18:30:00,
2013-06-14 11:36:00,78.6,40.1,29.91,WNW,282,5.0,16.0,32,0.00,,,0.00,meteohub,2013-06-14 18:36:00,
2013-06-14 11:41:00,78.1,40.1,29.91,WSW,252,14.0,16.0,32,0.00,,,0.00,meteohub,2013-06-14 18:41:00,
2013-06-14 11:47:00,76.8,40.1,29.91,SW,218,4.0,16.0,32,0.00,,,0.00,meteohub,2013-06-14 18:47:00,
2013-06-14 11:52:00,77.7,40.1,29.91,NNW,344,5.0,15.0,32,0.00,,,0.00,meteohub,2013-06-14 18:52:00,
2013-06-14 11:57:00,78.4,40.1,29.91,NNE,29,4.0,15.0,32,0.00,,,0.00,meteohub,2013-06-14 18:57:00,
2013-06-14 12:02:00,77.5,40.1,29.90,WSW,256,8.0,14.0,32,0.00,,,0.00,meteohub,2013-06-14 19:02:00,
2013-06-14 12:07:00,78.1,40.3,29.90,WSW,256,7.0,13.0,32,0.00,,,0.00,meteohub,2013-06-14 19:07:00,
2013-06-14 12:12:00,78.1,40.3,29.90,NNW,335,6.0,16.0,32,0.00,,,0.00,meteohub,2013-06-14 19:12:00,
2013-06-14 12:17:00,77.2,40.3,29.90,WSW,239,7.0,17.0,32,0.00,,,0.00,meteohub,2013-06-14 19:17:00,
2013-06-14 12:23:00,77.0,40.5,29.90,WSW,253,6.0,17.0,32,0.00,,,0.00,meteohub,2013-06-14 19:23:00,
2013-06-14 12:28:00,77.2,40.5,29.90,ENE,60,5.0,16.0,32,0.00,,,0.00,meteohub,2013-06-14 19:28:00,
2013-06-14 12:34:00,77.4,40.5,29.90,WNW,282,7.0,16.0,32,0.00,,,0.00,meteohub,2013-06-14 19:34:00,
2013-06-14 12:39:00,77.0,40.6,29.89,NE,54,4.0,18.0,32,0.00,,,0.00,meteohub,2013-06-14 19:39:00,
2013-06-14 12:45:00,77.2,40.6,29.89,ESE,113,8.0,17.0,32,0.00,,,0.00,meteohub,2013-06-14 19:45:00,
2013-06-14 12:50:00,77.2,40.8,29.89,NNE,15,8.0,14.0,32,0.00,,,0.00,meteohub,2013-06-14 19:50:00,
2013-06-14 12:56:00,76.8,41.5,29.89,North,354,6.0,17.0,33,0.00,,,0.00,meteohub,2013-06-14 19:56:00,
2013-06-14 13:01:00,77.0,41.5,29.89,WNW,303,6.0,17.0,33,0.00,,,0.00,meteohub,2013-06-14 20:01:00,
2013-06-14 13:07:00,77.0,41.7,29.89,West,276,12.0,17.0,33,0.00,,,0.00,meteohub,2013-06-14 20:07:00,
2013-06-14 13:12:00,77.4,41.7,29.89,NNW,343,3.0,16.0,33,0.00,,,0.00,meteohub,2013-06-14 20:12:00,
2013-06-14 13:17:00,77.4,41.9,29.89,SSW,211,5.0,16.0,33,0.00,,,0.00,meteohub,2013-06-14 20:17:00,
2013-06-14 13:22:00,77.0,41.9,29.89,North,6,5.0,17.0,33,0.00,,,0.00,meteohub,2013-06-14 20:22:00,
2013-06-14 13:27:00,76.5,41.9,29.89,West,274,13.0,18.0,33,0.00,,,0.00,meteohub,2013-06-14 20:27:00,
2013-06-14 13:33:00,76.6,42.1,29.89,NE,39,6.0,18.0,33,0.00,,,0.00,meteohub,2013-06-14 20:33:00,
2013-06-14 13:38:00,75.9,42.1,29.89,North,353,7.0,17.0,33,0.00,,,0.00,meteohub,2013-06-14 20:38:00,
2013-06-14 13:44:00,76.1,42.3,29.88,East,81,7.0,17.0,33,0.00,,,0.00,meteohub,2013-06-14 20:44:00,
2013-06-14 13:49:00,75.9,42.3,29.88,SW,214,9.0,17.0,33,0.00,,,0.00,meteohub,2013-06-14 20:49:00,
2013-06-14 13:55:00,76.3,42.3,29.88,NNE,18,5.0,17.0,33,0.00,,,0.00,meteohub,2013-06-14 20:55:00,
2013-06-14 14:00:00,76.5,42.4,29.88,ESE,114,9.0,18.0,33,0.00,,,0.00,meteohub,2013-06-14 21:00:00,
2013-06-14 14:06:00,76.5,42.4,29.88,SW,229,8.0,18.0,33,0.00,,,0.00,meteohub,2013-06-14 21:06:00,
2013-06-14 14:11:00,75.9,42.6,29.88,ENE,65,6.0,17.0,33,0.00,,,0.00,meteohub,2013-06-14 21:11:00,
2013-06-14 14:17:00,75.7,42.6,29.88,West,278,16.0,18.0,33,0.00,,,0.00,meteohub,2013-06-14 21:17:00,
2013-06-14 14:22:00,75.6,42.6,29.88,NNE,33,5.0,21.0,33,0.00,,,0.00,meteohub,2013-06-14 21:22:00,
2013-06-14 14:27:00,75.7,42.6,29.87,NE,41,10.0,21.0,33,0.00,,,0.00,meteohub,2013-06-14 21:27:00,
2013-06-14 14:32:00,75.6,42.6,29.87,SE,129,14.0,21.0,33,0.00,,,0.00,meteohub,2013-06-14 21:32:00,
2013-06-14 14:37:00,74.8,42.8,29.87,West,260,19.0,20.0,33,0.00,,,0.00,meteohub,2013-06-14 21:37:00,
2013-06-14 14:42:00,75.0,42.8,29.87,WSW,257,16.0,23.0,33,0.00,,,0.00,meteohub,2013-06-14 21:42:00,
2013-06-14 14:47:00,75.2,43.0,29.87,SW,217,7.0,23.0,33,0.00,,,0.00,meteohub,2013-06-14 21:47:00,
2013-06-14 14:52:00,75.7,43.0,29.87,NNE,26,7.0,23.0,33,0.00,,,0.00,meteohub,2013-06-14 21:52:00,
2013-06-14 14:57:00,75.7,43.0,29.87,WSW,252,15.0,20.0,33,0.00,,,0.00,meteohub,2013-06-14 21:57:00,
2013-06-14 15:02:00,75.9,43.2,29.87,East,81,5.0,20.0,33,0.00,,,0.00,meteohub,2013-06-14 22:02:00,
2013-06-14 15:08:00,75.9,43.2,29.87,WSW,249,15.0,19.0,33,0.00,,,0.00,meteohub,2013-06-14 22:08:00,
2013-06-14 15:13:00,76.3,43.3,29.87,East,80,11.0,19.0,33,0.00,,,0.00,meteohub,2013-06-14 22:13:00,
2013-06-14 15:18:00,75.6,43.5,29.86,WNW,301,7.0,22.0,33,0.00,,,0.00,meteohub,2013-06-14 22:18:00,
2013-06-14 15:24:00,75.2,43.5,29.86,ENE,59,6.0,24.0,33,0.00,,,0.00,meteohub,2013-06-14 22:24:00,
2013-06-14 15:29:00,75.7,43.5,29.86,West,260,13.0,24.0,33,0.00,,,0.00,meteohub,2013-06-14 22:29:00,
2013-06-14 15:35:00,76.1,43.7,29.86,SE,129,8.0,24.0,33,0.00,,,0.00,meteohub,2013-06-14 22:35:00,
2013-06-14 15:40:00,75.4,43.7,29.86,NNE,29,10.0,19.0,33,0.00,,,0.00,meteohub,2013-06-14 22:40:00,
2013-06-14 15:46:00,75.0,43.9,29.86,WNW,300,15.0,23.0,33,0.00,,,0.00,meteohub,2013-06-14 22:46:00,
2013-06-14 15:51:00,74.7,43.9,29.85,West,275,12.0,23.0,33,0.00,,,0.00,meteohub,2013-06-14 22:51:00,
2013-06-14 15:57:00,74.8,43.9,29.85,NNE,32,5.0,23.0,33,0.00,,,0.00,meteohub,2013-06-14 22:57:00,
2013-06-14 16:02:00,75.4,43.9,29.85,SSE,165,10.0,20.0,33,0.00,,,0.00,meteohub,2013-06-14 23:02:00,
2013-06-14 16:07:00,75.0,43.9,29.85,NE,50,6.0,19.0,33,0.00,,,0.00,meteohub,2013-06-14 23:07:00,
2013-06-14 16:12:00,74.8,44.1,29.85,NNE,31,7.0,18.0,33,0.00,,,0.00,meteohub,2013-06-14 23:12:00,
2013-06-14 16:17:00,74.7,44.2,29.85,SW,218,19.0,19.0,33,0.00,,,0.00,meteohub,2013-06-14 23:17:00,
2013-06-14 16:22:00,74.7,44.2,29.85,WSW,239,14.0,20.0,33,0.00,,,0.00,meteohub,2013-06-14 23:22:00,
2013-06-14 16:27:00,74.7,44.2,29.84,West,267,17.0,21.0,33,0.00,,,0.00,meteohub,2013-06-14 23:27:00,
2013-06-14 16:32:00,74.5,44.4,29.84,NE,44,10.0,21.0,33,0.00,,,0.00,meteohub,2013-06-14 23:32:00,
2013-06-14 16:37:00,74.5,44.4,29.84,WSW,253,16.0,24.0,33,0.00,,,0.00,meteohub,2013-06-14 23:37:00,
2013-06-14 16:43:00,73.9,44.6,29.84,NNE,16,16.0,24.0,33,0.00,,,0.00,meteohub,2013-06-14 23:43:00,
2013-06-14 16:48:00,73.9,44.6,29.84,ENE,72,9.0,24.0,33,0.00,,,0.00,meteohub,2013-06-14 23:48:00,
2013-06-14 16:54:00,73.8,45.5,29.83,NE,44,5.0,24.0,34,0.00,,,0.00,meteohub,2013-06-14 23:54:00,
2013-06-14 16:59:00,73.2,45.5,29.83,ENE,65,11.0,22.0,34,0.00,,,0.00,meteohub,2013-06-14 23:59:00,
2013-06-14 17:04:00,73.2,45.5,29.83,SSW,212,6.0,23.0,34,0.00,,,0.00,meteohub,2013-06-15 00:04:00,
2013-06-14 17:09:00,73.0,45.7,29.83,North,6,6.0,23.0,34,0.00,,,0.00,meteohub,2013-06-15 00:09:00,
2013-06-14 17:15:00,72.9,45.9,29.83,East,98,9.0,23.0,34,0.00,,,0.00,meteohub,2013-06-15 00:15:00,
2013-06-14 17:20:00,72.7,45.9,29.83,NNE,15,13.0,19.0,34,0.00,,,0.00,meteohub,2013-06-15 00:20:00,
2013-06-14 17:25:00,72.1,45.9,29.83,West,267,11.0,19.0,34,0.00,,,0.00,meteohub,2013-06-15 00:25:00,
2013-06-14 17:30:00,72.1,46.0,29.83,NE,50,11.0,20.0,34,0.00,,,0.00,meteohub,2013-06-15 00:30:00,
2013-06-14 17:35:00,72.1,46.0,29.83,East,80,8.0,20.0,34,0.00,,,0.00,meteohub,2013-06-15 00:35:00,
2013-06-14 17:40:00,72.1,46.2,29.83,NW,304,6.0,20.0,34,0.00,,,0.00,meteohub,2013-06-15 00:40:00,
2013-06-14 17:45:00,71.2,46.2,29.83,WSW,239,13.0,19.0,34,0.00,,,0.00,meteohub,2013-06-15 00:45:00,
2013-06-14 17:50:00,70.9,46.4,29.83,West,277,13.0,20.0,34,0.00,,,0.00,meteohub,2013-06-15 00:50:00,
2013-06-14 17:55:00,71.1,46.4,29.83,North,354,5.0,21.0,34,0.00,,,0.00,meteohub,2013-06-15 00:55:00,
2013-06-14 18:00:00,71.1,46.4,29.83,ENE,78,6.0,21.0,34,0.00,,,0.00,meteohub,2013-06-15 01:00:00,
2013-06-14 18:05:00,70.5,45.7,29.83,SE,146,8.0,18.0,33,0.00,,,0.00,meteohub,2013-06-15 01:05:00,
2013-06-14 18:10:00,70.3,45.7,29.83,West,271,13.0,18.0,33,0.00,,,0.00,meteohub,2013-06-15 01:10:00,
2013-06-14 18:15:00,70.0,45.9,29.83,WNW,294,12.0,18.0,33,0.00,,,0.00,meteohub,2013-06-15 01:15:00,
2013-06-14 18:21:00,69.8,45.9,29.83,SW,216,10.0,20.0,33,0.00,,,0.00,meteohub,2013-06-15 01:21:00,
2013-06-14 18:26:00,69.6,45.9,29.83,West,280,6.0,20.0,33,0.00,,,0.00,meteohub,2013-06-15 01:26:00,
2013-06-14 18:31:00,69.4,46.0,29.83,NNE,23,7.0,19.0,33,0.00,,,0.00,meteohub,2013-06-15 01:31:00,
2013-06-14 18:36:00,69.1,46.0,29.83,West,280,17.0,19.0,33,0.00,,,0.00,meteohub,2013-06-15 01:36:00,
2013-06-14 18:41:00,68.4,46.0,29.83,NNW,328,11.0,21.0,33,0.00,,,0.00,meteohub,2013-06-15 01:41:00,
2013-06-14 18:46:00,68.0,46.2,29.83,West,278,11.0,21.0,33,0.00,,,0.00,meteohub,2013-06-15 01:46:00,
2013-06-14 18:52:00,67.3,46.2,29.83,WNW,293,15.0,21.0,33,0.00,,,0.00,meteohub,2013-06-15 01:52:00,
2013-06-14 18:57:00,66.9,46.2,29.83,NNE,30,7.0,21.0,33,0.00,,,0.00,meteohub,2013-06-15 01:57:00,
2013-06-14 19:02:00,67.1,46.4,29.83,West,270,11.0,20.0,33,0.00,,,0.00,meteohub,2013-06-15 02:02:00,
2013-06-14 19:07:00,66.9,46.4,29.83,WSW,246,9.0,20.0,33,0.00,,,0.00,meteohub,2013-06-15 02:07:00,
2013-06-14 19:12:00,66.6,46.4,29.83,West,274,11.0,14.0,33,0.00,,,0.00,meteohub,2013-06-15 02:12:00,
2013-06-14 19:17:00,65.8,46.4,29.83,WSW,257,11.0,13.0,33,0.00,,,0.00,meteohub,2013-06-15 02:17:00,
2013-06-14 19:22:00,65.5,46.4,29.83,WSW,256,12.0,17.0,33,0.00,,,0.00,meteohub,2013-06-15 02:22:00,
2013-06-14 19:27:00,65.1,46.4,29.83,WSW,238,14.0,17.0,33,0.00,,,0.00,meteohub,2013-06-15 02:27:00,
2013-06-14 19:32:00,64.9,46.4,29.83,WSW,239,16.0,18.0,33,0.00,,,0.00,meteohub,2013-06-15 02:32:00,
2013-06-14 19:37:00,64.8,46.4,29.83,SW,228,12.0,19.0,33,0.00,,,0.00,meteohub,2013-06-15 02:37:00,
2013-06-14 19:42:00,63.7,46.4,29.83,WNW,291,9.0,19.0,33,0.00,,,0.00,meteohub,2013-06-15 02:42:00,
2013-06-14 19:47:00,63.9,46.4,29.83,NNW,345,14.0,19.0,33,0.00,,,0.00,meteohub,2013-06-15 02:47:00,
2013-06-14 19:52:00,64.6,46.4,29.83,WSW,248,12.0,18.0,33,0.00,,,0.00,meteohub,2013-06-15 02:52:00,
2013-06-14 19:57:00,64.8,46.4,29.83,West,271,12.0,18.0,33,0.00,,,0.00,meteohub,2013-06-15 02:57:00,
2013-06-14 20:03:00,64.8,46.4,29.83,West,266,13.0,17.0,33,0.00,,,0.00,meteohub,2013-06-15 03:03:00,
2013-06-14 20:08:00,64.6,46.4,29.84,East,86,10.0,18.0,33,0.00,,,0.00,meteohub,2013-06-15 03:08:00,
2013-06-14 20:13:00,64.8,46.4,29.84,SW,226,13.0,18.0,33,0.00,,,0.00,meteohub,2013-06-15 03:13:00,
2013-06-14 20:18:00,64.9,46.4,29.84,SW,221,13.0,18.0,33,0.00,,,0.00,meteohub,2013-06-15 03:18:00,
2013-06-14 20:23:00,64.9,46.4,29.84,WSW,251,12.0,17.0,33,0.00,,,0.00,meteohub,2013-06-15 03:23:00,
2013-06-14 20:28:00,64.9,46.4,29.84,West,266,12.0,17.0,33,0.00,,,0.00,meteohub,2013-06-15 03:28:00,
2013-06-14 20:33:00,64.8,46.2,29.84,West,259,11.0,17.0,33,0.00,,,0.00,meteohub,2013-06-15 03:33:00,
2013-06-14 20:38:00,64.8,46.2,29.85,West,266,9.0,16.0,33,0.00,,,0.00,meteohub,2013-06-15 03:38:00,
2013-06-14 20:43:00,64.9,46.2,29.85,SW,235,9.0,15.0,33,0.00,,,0.00,meteohub,2013-06-15 03:43:00,
2013-06-14 20:48:00,64.8,46.2,29.85,WSW,238,10.0,14.0,33,0.00,,,0.00,meteohub,2013-06-15 03:48:00,
2013-06-14 20:53:00,64.6,46.0,29.85,WSW,240,9.0,14.0,33,0.00,,,0.00,meteohub,2013-06-15 03:53:00,
2013-06-14 20:58:00,64.2,46.0,29.85,WSW,240,14.0,14.0,33,0.00,,,0.00,meteohub,2013-06-15 03:58:00,
2013-06-14 21:01:00,64.2,46.0,29.85,SW,228,11.0,13.0,33,0.00,,,0.00,meteohub,2013-06-15 04:01:00,
2013-06-14 21:02:00,64.2,46.0,29.85,WNW,290,12.0,13.0,33,0.00,,,0.00,meteohub,2013-06-15 04:02:00,
2013-06-14 21:04:00,64.2,46.0,29.85,West,259,12.0,13.0,33,0.00,,,0.00,meteohub,2013-06-15 04:04:00,
2013-06-14 21:05:00,64.2,46.0,29.85,West,263,12.0,13.0,33,0.00,,,0.00,meteohub,2013-06-15 04:05:00,
2013-06-14 21:10:00,63.9,46.0,29.85,NE,34,11.0,16.0,33,0.00,,,0.00,meteohub,2013-06-15 04:10:00,
2013-06-14 21:16:00,63.7,45.9,29.85,NW,321,7.0,17.0,33,0.00,,,0.00,meteohub,2013-06-15 04:16:00,
2013-06-14 21:21:00,63.7,45.9,29.86,West,259,12.0,17.0,33,0.00,,,0.00,meteohub,2013-06-15 04:21:00,
2013-06-14 21:26:00,63.9,45.9,29.86,West,267,11.0,17.0,33,0.00,,,0.00,meteohub,2013-06-15 04:26:00,
2013-06-14 21:32:00,63.9,45.7,29.86,WSW,242,18.0,18.0,33,0.00,,,0.00,meteohub,2013-06-15 04:32:00,
2013-06-14 21:37:00,64.0,45.7,29.86,SW,236,17.0,18.0,33,0.00,,,0.00,meteohub,2013-06-15 04:37:00,
2013-06-14 21:42:00,64.0,44.8,29.86,North,353,8.0,18.0,32,0.00,,,0.00,meteohub,2013-06-15 04:42:00,
2013-06-14 21:47:00,64.2,44.8,29.86,WNW,298,12.0,18.0,32,0.00,,,0.00,meteohub,2013-06-15 04:47:00,
2013-06-14 21:52:00,64.2,44.8,29.86,West,259,11.0,20.0,32,0.00,,,0.00,meteohub,2013-06-15 04:52:00,
2013-06-14 21:58:00,64.4,44.6,29.86,West,269,8.0,20.0,32,0.00,,,0.00,meteohub,2013-06-15 04:58:00,
2013-06-14 22:03:00,64.6,44.6,29.87,West,266,11.0,19.0,32,0.00,,,0.00,meteohub,2013-06-15 05:03:00,
2013-06-14 22:09:00,64.4,44.4,29.87,SW,224,13.0,22.0,32,0.00,,,0.00,meteohub,2013-06-15 05:09:00,
2013-06-14 22:14:00,64.4,44.4,29.87,West,264,6.0,22.0,32,0.00,,,0.00,meteohub,2013-06-15 05:14:00,
2013-06-14 22:20:00,64.4,44.4,29.87,NW,323,13.0,22.0,32,0.00,,,0.00,meteohub,2013-06-15 05:20:00,
2013-06-14 22:25:00,64.6,44.2,29.87,WNW,302,13.0,18.0,32,0.00,,,0.00,meteohub,2013-06-15 05:25:00,
2013-06-14 22:31:00,64.6,44.2,29.86,WSW,243,12.0,21.0,32,0.00,,,0.00,meteohub,2013-06-15 05:31:00,
2013-06-14 22:36:00,64.2,43.3,29.87,SSW,212,11.0,21.0,31,0.00,,,0.00,meteohub,2013-06-15 05:36:00,
2013-06-14 22:42:00,64.0,43.3,29.87,West,267,13.0,21.0,31,0.00,,,0.00,meteohub,2013-06-15 05:42:00,
2013-06-14 22:47:00,63.9,43.2,29.86,SSE,165,10.0,20.0,31,0.00,,,0.00,meteohub,2013-06-15 05:47:00,
2013-06-14 22:52:00,63.7,43.2,29.86,NE,44,10.0,22.0,31,0.00,,,0.00,meteohub,2013-06-15 05:52:00,
2013-06-14 22:57:00,63.3,43.2,29.86,WNW,302,13.0,22.0,31,0.00,,,0.00,meteohub,2013-06-15 05:57:00,
2013-06-14 23:02:00,63.3,43.0,29.86,West,277,13.0,22.0,31,0.00,,,0.00,meteohub,2013-06-15 06:02:00,
2013-06-14 23:07:00,63.1,43.0,29.86,NW,304,13.0,21.0,31,0.00,,,0.00,meteohub,2013-06-15 06:07:00,
2013-06-14 23:12:00,63.0,42.8,29.86,NW,308,13.0,21.0,31,0.00,,,0.00,meteohub,2013-06-15 06:12:00,
2013-06-14 23:17:00,62.8,42.8,29.86,ENE,59,16.0,21.0,31,0.00,,,0.00,meteohub,2013-06-15 06:17:00,
2013-06-14 23:22:00,62.4,42.8,29.86,West,262,17.0,20.0,31,0.00,,,0.00,meteohub,2013-06-15 06:22:00,
2013-06-14 23:27:00,62.1,41.7,29.86,WNW,294,12.0,22.0,30,0.00,,,0.00,meteohub,2013-06-15 06:27:00,
2013-06-14 23:32:00,61.5,41.7,29.86,WSW,256,20.0,22.0,30,0.00,,,0.00,meteohub,2013-06-15 06:32:00,
2013-06-14 23:37:00,60.8,41.7,29.86,West,260,18.0,23.0,30,0.00,,,0.00,meteohub,2013-06-15 06:37:00,
2013-06-14 23:43:00,60.4,41.7,29.86,ENE,63,13.0,23.0,30,0.00,,,0.00,meteohub,2013-06-15 06:43:00,
2013-06-14 23:48:00,60.3,41.5,29.86,SW,232,22.0,25.0,30,0.00,,,0.00,meteohub,2013-06-15 06:48:00,
2013-06-14 23:54:00,60.8,41.5,29.85,WNW,285,14.0,25.0,30,0.00,,,0.00,meteohub,2013-06-15 06:54:00,
2013-06-14 23:59:00,60.8,41.4,29.85,WSW,240,15.0,25.0,30,0.00,,,0.00,meteohub,2013-06-15 06:59:00,